Regional Weather Roundup
Issued by NWS

Home | Current Version | Previous Version | Graphics & Text | Print | Product List | Glossary On
Versions: 1 2 3 4 5 6 7 8 9 10 11 12 13 14 15 16 17 18 19 20 21 22 23 24 25 26 27 28 29 30 31 32 33 34 35 36 37 38 39 40 41 42 43 44 45 46 47 48 49 50
000
ASUS43 KMPX 211810
RWRMN
WEATHER ROUNDUP FOR MINNESOTA
NATIONAL WEATHER SERVICE TWIN CITIES/CHANHASSEN MN
100 PM CDT MON MAY 21 2018


NOTE: "FAIR" INDICATES FEW OR NO CLOUDS BELOW 12,000 FEET WITH NO
SIGNIFICANT WEATHER AND/OR OBSTRUCTIONS TO VISIBILITY. N/A MEANS
CURRENT SKY AND/OR WEATHER CONDITIONS ARE NOT AVAILABLE.

MNZ060>063-068>070-211900-
   Twin Cities Metro

CITY           SKY/WX    TMP DP  RH WIND       PRES   REMARKS
TWIN CITIES    CLOUDY    64  50  60 E9        30.05F
6HR MIN TEMP:  60; 6HR MAX TEMP:  64;

ST PAUL        CLOUDY    63  49  60 SE8       30.07F
CRYSTAL        CLOUDY    65  46  50 E10       30.05F
BLAINE         CLOUDY    64  46  52 SE8       30.06F
LAKEVILLE      PTSUNNY   66  52  59 E6        30.04F
EDEN PRAIRIE   CLOUDY    65  49  56 E7        30.04F
6HR MIN TEMP:  59; 6HR MAX TEMP:  65;

SOUTH ST PAUL  PTSUNNY   64  47  52 NE7       30.05F
LAKE ELMO      CLOUDY    63  45  51 E7        30.07F
$$
MNZ001>005-007-008-013>017-022>024-027-028-211900-
   Northwest Minnesota

CITY           SKY/WX    TMP DP  RH WIND       PRES   REMARKS
BEMIDJI        FAIR      72  33  23 SE9       30.05F
HALLOCK        FAIR      75  27  16 S9        30.01F
ROSEAU         FAIR      72  36  26 SE7       30.04F
WARROAD        FAIR      68  48  49 NE7       30.05F
THIEF RVR FALL FAIR      71  33  24 SE9       30.04F
CROOKSTON      FAIR      73  30  20 SE9       30.02F
FOSSTON        FAIR      73  28  19 SE9G17    30.04F
DETROIT LAKES  FAIR      68  34  28 SE12      30.05F
MOORHEAD       FAIR      73  43  33 SE10G20   30.02F
PARK RAPIDS    PTSUNNY   67  35  30 SE15      30.06F
MAHNOMEN       FAIR      70  35  28 SE10G16   30.03F
$$
MNZ006-009>011-018-025>026-211900-
   North Central Minnesota

CITY           SKY/WX    TMP DP  RH WIND       PRES   REMARKS
BAUDETTE       FAIR      73  29  19 S6        30.05F
FLAG ISLAND    FAIR      64  36  34 SE5       30.05S
INTL FALLS     FAIR      73  34  23 CALM      30.05F
6HR MIN TEMP:  47; 6HR MAX TEMP:  73;

WASKISH        FAIR      72  37  28 W8        30.05F
BIG FORK       FAIR      75  34  22 S6        30.06F
LONGVILLE      CLOUDY    70  37  30 S10G17    30.07F
GRAND RAPIDS   FAIR      71  34  25 VRB5      30.08F
CRANE LAKE     FAIR      72  28  20 N6        30.08F
ORR            FAIR      73  25  16 NE6       30.05F
COOK           FAIR      72  28  20 S6        30.07F
WALKER         CLOUDY    69  39  34 E6        30.06F
$$
MNZ012-019>021-037-211900-
   Northeast Minnesota

CITY           SKY/WX    TMP DP  RH WIND       PRES   REMARKS
DULUTH         FAIR      69  30  23 E12       30.09F
6HR MIN TEMP:  49; 6HR MAX TEMP:  71;

ELY            FAIR      72  21  15 CALM      30.07F
HIBBING        FAIR      73  33  23 SE6       30.07F
EVELETH        FAIR      72  33  24 SE7       30.08F
DULUTH HARBOR  FAIR      52  43  71 E5        30.10F
TWO HARBORS    FAIR      77  43  29 E5        30.07F
SILVER BAY     FAIR      70  32  24 E6        30.09F
GRAND MARAIS     N/A     47  36  65 CALM      30.12F
G MARAIS ARPRT FAIR      68  27  21 SE7       30.13S
$$
MNZ029>031-032-039>041-046>048-054>057-064-211900-
   West Central Minnesota

CITY           SKY/WX    TMP DP  RH WIND       PRES   REMARKS
FERGUS FALLS   CLOUDY    64  46  52 SE13      30.00S
WHEATON        CLOUDY    64  52  63 E8        30.04F
MORRIS         CLOUDY    61  54  77 SE12      30.03S
ALEXANDRIA     LGT RAIN  58  53  84 E10       30.07F
ELBOW LAKE     CLOUDY    62  54  76 SE12      30.04F
WADENA         CLOUDY    61  39  44 E14       30.07F
GLENWOOD       CLOUDY    55  54  94 E8        30.07S FOG
APPLETON       CLOUDY    63  55  77 SE5       30.02F
BENSON         CLOUDY    61  54  77 SE8       30.05F
ORTONVILLE     PTSUNNY   61  54  77 SE7       30.02F
MADISON        CLOUDY    63  57  82 SE8       30.02F
WILLMAR        CLOUDY    57  55  94 E6        30.07F
$$
MNZ033>034-036-042>043-049>051-058-059-211900-
   Central Minnesota

CITY           SKY/WX    TMP DP  RH WIND       PRES   REMARKS
ST CLOUD       LGT RAIN  57  53  86 CALM      30.07S
6HR MIN TEMP:  53; 6HR MAX TEMP:  59; 6HR PCP:  0.07;

SAUK CENTRE    CLOUDY    54  52  93 E8        30.07F FOG
PAYNESVILLE    LGT RAIN  56  55  96 E7        30.06F
AITKIN         PTSUNNY   64  34  32 SE8       30.07S
PINE RIVER     CLOUDY    63  36  36 SE6       30.11S
BRAINERD       CLOUDY    61  43  51 SE5       30.09F
STAPLES        LGT RAIN  55  43  62 E3        30.09F
LONG PRAIRIE   DRIZZLE   52  50  93 NE7       30.08F
LITTLE FALLS   PTSUNNY   59  37  44 E7        30.08F
LITCHFIELD     CLOUDY    59  59 100 E7        30.06F
BUFFALO        DRIZZLE   59  50  71 CALM      30.06F
MAPLE LAKE     CLOUDY    57  55  92 CALM      30.07F FOG
HUTCHINSON     CLOUDY    59  57  91 E6        30.06F
$$
MNZ037-044-045-052-053-211900-
   East Central Minnesota

CITY           SKY/WX    TMP DP  RH WIND       PRES   REMARKS
PRINCETON      CLOUDY    63  39  42 E5        30.07F
MORA           CLOUDY    63  34  34 E6        30.10S
CAMBRIDGE      CLOUDY    66  43  42 E6        30.07F
RUSH CITY      PTSUNNY   66  31  27 E5        30.08F
MOOSE LAKE     CLOUDY    64  34  32 E5        30.07F
HINCKLEY       CLOUDY    66  32  28 SE7       30.08F
CLOQUET        FAIR      68  28  22 E9        30.08F
MCGREGOR       PTSUNNY   68  34  28 SE8       30.08F
$$
MNZ071>073-080-081-089-090-097-098-211900-
   Southwest Minnesota

CITY           SKY/WX    TMP DP  RH WIND       PRES   REMARKS
MONTEVIDEO     DRIZZLE   59  57  94 S8        30.04S
GRANITE FALLS  CLOUDY    62  57  84 E6        30.05S
CANBY          LGT RAIN  60  56  88 E7        30.04S
MARSHALL       CLOUDY    60  56  86 SE7       30.03F
REDWOOD FALLS  CLOUDY    59  57  93 SE9       30.04S
OLIVIA         CLOUDY    59  55  88 E6        30.04S
PIPESTONE      CLOUDY    61  57  88 SW5       30.02S
WINDOM         LGT RAIN  59  45  58 SE3       30.03F
WORTHINGTON    LGT RAIN  57  56  96 SE6       30.05S FOG
JACKSON        CLOUDY    55  55 100 CALM      30.04F FOG
TRACY          CLOUDY    60  57  92 S5        30.03F
SLAYTON        CLOUDY    59  56  90 SE6       30.04F
$$
MNZ065>067-074>077-082>085-091>093-211900-
   South Central Minnesota

CITY           SKY/WX    TMP DP  RH WIND       PRES   REMARKS
MANKATO        CLOUDY    62  54  74 SE3       30.05S
NEW ULM        CLOUDY    59  55  88 CALM      30.04F
ST JAMES       CLOUDY    63  55  77 CALM      30.04F
FAIRMONT       CLOUDY    61  57  87 CALM      30.03F
GLENCOE        CLOUDY    63  55  74 E6        30.04F
FARIBAULT      CLOUDY    64  52  63 CALM      30.05S
OWATONNA       CLOUDY    63  54  72 E6        30.05S
WASECA         CLOUDY    63  52  67 E7        30.05F
ALBERT LEA     CLOUDY    61  52  72 SE5       30.04S
$$
MNZ078>079-086>088-094>096-211900-
   Southeast Minnesota

CITY           SKY/WX    TMP DP  RH WIND       PRES   REMARKS
ROCHESTER      LGT RAIN  54  53  97 NE12      30.06F FOG
6HR MIN TEMP:  53; 6HR MAX TEMP:  57; 6HR PCP:  0.10;

RED WING       PTSUNNY   64  37  36 SE13      30.06F
STANTON        CLOUDY    66  50  55 E7        30.03F
DODGE CENTER   LGT RAIN  55  54  94 E13       30.05F
WINONA         CLOUDY    54  48  82 E5        30.06F
AUSTIN         CLOUDY    57  54  88 E7        30.04F
PRESTON        CLOUDY    53  50  91 E8        30.07S FOG
$$
ABBREVIATIONS USED IN REMARKS
   TC - TEMPERATURES IN CELSIUS
  WCI - WIND CHILL INDEX
   HX - HEAT INDEX
  VSB - VISIBILITY
$$




USA.gov is the U.S. government's official web portal to all federal, state and local government web resources and services.